QAEM 100 R/B

Last updated on Tue Oct 15 2024 00:02:03 GMT+0000 (Coordinated Universal Time)

1 61071U 24165A 24288.59024594 .00006232 00000+0 44499-3 0 9990 2 61071 64.0950 241.0804 0006056 264.5828 95.4594 15.05374159 4563
UTC large
Height (km)
Speed (km/s)
/
Latitude / Longitude
Inclination (degrees)
Orbital Period (minutes)
Azimuth
Elevation
Range (km)
Doppler Factor

Next 0 passes for location: London (51.5072 / 0.1276)

Sorry there are no passes over London.